Time,TemperatureF,DewpointF,PressureIn,WindDirection,WindDirectionDegrees,WindSpeedMPH,WindSpeedGustMPH,Humidity,HourlyPrecipIn,Conditions,Clouds,dailyrainin,SoftwareType,DateUTC
2013-05-04 00:03:00,51.8,43.4,30.15,North,0,0.0,0.0,73,0.00,RA,OVC,0.00,WeatherDisplay:10.37,2013-05-04 05:03:00,
2013-05-04 00:08:00,51.8,43.4,30.15,North,0,0.0,0.0,73,0.00,RA,OVC,0.00,WeatherDisplay:10.37,2013-05-04 05:08:00,
2013-05-04 00:13:00,51.6,43.6,30.15,North,0,0.0,0.0,74,0.00,OVC,,0.00,WeatherDisplay:10.37,2013-05-04 05:13:00,
2013-05-04 00:18:00,51.6,43.6,30.15,North,0,0.0,0.0,74,0.00,OVC,,0.00,WeatherDisplay:10.37,2013-05-04 05:18:00,
2013-05-04 00:23:00,51.6,43.6,30.15,North,0,0.0,0.0,74,0.00,OVC,,0.00,WeatherDisplay:10.37,2013-05-04 05:23:00,
2013-05-04 00:28:00,51.6,43.6,30.15,North,0,0.0,0.0,74,0.00,OVC,,0.00,WeatherDisplay:10.37,2013-05-04 05:28:00,
2013-05-04 00:33:00,51.4,43.4,30.18,North,0,0.0,0.0,74,0.00,OVC,,0.00,WeatherDisplay:10.37,2013-05-04 05:33:00,
2013-05-04 00:38:00,51.4,43.4,30.18,North,0,0.0,0.0,74,0.00,OVC,,0.00,WeatherDisplay:10.37,2013-05-04 05:38:00,
2013-05-04 00:43:00,51.3,43.3,30.18,North,0,0.0,0.0,74,0.00,OVC,,0.00,WeatherDisplay:10.37,2013-05-04 05:43:00,
2013-05-04 00:48:00,51.3,43.3,30.18,North,0,0.0,0.0,74,0.00,OVC,,0.00,WeatherDisplay:10.37,2013-05-04 05:48:00,
2013-05-04 00:53:00,51.3,43.3,30.18,North,0,0.0,0.0,74,0.00,OVC,,0.00,WeatherDisplay:10.37,2013-05-04 05:53:00,
2013-05-04 00:58:00,51.4,43.4,30.18,North,0,0.0,0.0,74,0.04,RA,OVC,0.04,WeatherDisplay:10.37,2013-05-04 05:58:00,
2013-05-04 01:03:00,51.3,43.3,30.18,North,0,0.0,0.0,74,0.04,RA,OVC,0.04,WeatherDisplay:10.37,2013-05-04 06:03:00,
2013-05-04 01:08:00,51.4,43.4,30.18,North,0,0.0,0.0,74,0.04,OVC,,0.04,WeatherDisplay:10.37,2013-05-04 06:08:00,
2013-05-04 01:13:00,51.4,43.4,30.18,North,0,0.0,0.0,74,0.04,OVC,,0.04,WeatherDisplay:10.37,2013-05-04 06:13:00,
2013-05-04 01:18:00,51.4,43.4,30.15,North,0,0.0,0.0,74,0.04,-RA,OVC,0.04,WeatherDisplay:10.37,2013-05-04 06:18:00,
2013-05-04 01:23:00,51.4,43.4,30.15,North,0,0.0,0.0,74,0.04,-RA,OVC,0.04,WeatherDisplay:10.37,2013-05-04 06:23:00,
2013-05-04 01:28:00,51.6,43.6,30.15,North,0,0.0,0.0,74,0.04,-RA,OVC,0.04,WeatherDisplay:10.37,2013-05-04 06:28:00,
2013-05-04 01:33:00,51.6,43.6,30.15,North,0,0.0,0.0,74,0.04,-RA,OVC,0.04,WeatherDisplay:10.37,2013-05-04 06:33:00,
2013-05-04 01:38:00,51.6,43.6,30.15,North,0,0.0,0.0,74,0.04,-RA,OVC,0.04,WeatherDisplay:10.37,2013-05-04 06:38:00,
2013-05-04 01:43:00,51.6,43.6,30.15,North,0,0.0,0.0,74,0.04,-RA,OVC,0.04,WeatherDisplay:10.37,2013-05-04 06:43:00,
2013-05-04 01:48:00,51.6,43.6,30.15,North,0,0.0,0.0,74,0.04,-RA,OVC,0.04,WeatherDisplay:10.37,2013-05-04 06:48:00,
2013-05-04 01:53:00,51.8,43.8,30.15,North,0,0.0,0.0,74,0.04,-RA,OVC,0.04,WeatherDisplay:10.37,2013-05-04 06:53:00,
2013-05-04 01:58:00,51.8,43.8,30.15,North,0,0.0,0.0,74,0.00,-RA,OVC,0.04,WeatherDisplay:10.37,2013-05-04 06:58:00,
2013-05-04 02:03:00,52.0,43.9,30.15,North,0,0.0,0.0,74,0.00,-RA,OVC,0.04,WeatherDisplay:10.37,2013-05-04 07:03:00,
2013-05-04 02:08:00,52.0,43.9,30.15,North,0,0.0,0.0,74,0.00,-RA,OVC,0.04,WeatherDisplay:10.37,2013-05-04 07:08:00,
2013-05-04 02:13:00,52.0,43.9,30.15,North,0,0.0,0.0,74,0.00,-RA,OVC,0.04,WeatherDisplay:10.37,2013-05-04 07:13:00,
2013-05-04 02:18:00,52.2,44.1,30.15,North,0,0.0,0.0,74,0.00,OVC,,0.04,WeatherDisplay:10.37,2013-05-04 07:18:00,
2013-05-04 02:23:00,52.2,44.1,30.15,North,0,0.0,0.0,74,0.00,OVC,,0.04,WeatherDisplay:10.37,2013-05-04 07:23:00,
2013-05-04 02:28:00,52.3,44.3,30.15,North,0,0.0,0.0,74,0.00,OVC,,0.04,WeatherDisplay:10.37,2013-05-04 07:28:00,
2013-05-04 02:33:00,52.3,44.3,30.15,North,0,0.0,0.0,74,0.00,OVC,,0.04,WeatherDisplay:10.37,2013-05-04 07:33:00,
2013-05-04 02:38:00,52.5,44.5,30.15,North,0,0.0,0.0,74,0.00,OVC,,0.04,WeatherDisplay:10.37,2013-05-04 07:38:00,
2013-05-04 02:43:00,52.7,44.6,30.15,North,0,0.0,0.0,74,0.00,OVC,,0.04,WeatherDisplay:10.37,2013-05-04 07:43:00,
2013-05-04 02:48:00,52.7,44.6,30.15,North,0,0.0,0.0,74,0.00,OVC,,0.04,WeatherDisplay:10.37,2013-05-04 07:48:00,
2013-05-04 02:53:00,52.9,44.8,30.15,North,0,0.0,0.0,74,0.00,OVC,,0.04,WeatherDisplay:10.37,2013-05-04 07:53:00,
2013-05-04 02:58:00,53.1,45.0,30.15,North,0,0.0,0.0,74,0.00,OVC,,0.04,WeatherDisplay:10.37,2013-05-04 07:58:00,
2013-05-04 03:03:00,53.1,45.0,30.15,North,0,0.0,0.0,74,0.00,OVC,,0.04,WeatherDisplay:10.37,2013-05-04 08:03:00,
2013-05-04 03:08:00,53.1,45.0,30.15,North,0,0.0,0.0,74,0.00,OVC,,0.04,WeatherDisplay:10.37,2013-05-04 08:08:00,
2013-05-04 03:13:00,53.1,45.0,30.15,North,0,0.0,0.0,74,0.00,OVC,,0.04,WeatherDisplay:10.37,2013-05-04 08:13:00,
2013-05-04 03:18:00,53.1,45.0,30.15,North,0,0.0,0.0,74,0.00,OVC,,0.04,WeatherDisplay:10.37,2013-05-04 08:18:00,
2013-05-04 03:23:00,53.2,45.2,30.15,North,0,0.0,0.0,74,0.00,OVC,,0.04,WeatherDisplay:10.37,2013-05-04 08:23:00,
2013-05-04 03:28:00,53.4,45.7,30.15,North,0,0.0,0.0,75,0.00,OVC,,0.04,WeatherDisplay:10.37,2013-05-04 08:28:00,
2013-05-04 03:33:00,53.6,45.5,30.15,North,0,0.0,0.0,74,0.00,OVC,,0.04,WeatherDisplay:10.37,2013-05-04 08:33:00,
2013-05-04 03:38:00,53.8,45.7,30.15,North,0,0.0,0.0,74,0.00,OVC,,0.04,WeatherDisplay:10.37,2013-05-04 08:38:00,
2013-05-04 03:43:00,54.0,45.9,30.15,North,0,0.0,0.0,74,0.00,OVC,,0.04,WeatherDisplay:10.37,2013-05-04 08:43:00,
2013-05-04 03:48:00,54.1,46.4,30.15,North,0,0.0,0.0,75,0.00,OVC,,0.04,WeatherDisplay:10.37,2013-05-04 08:48:00,
2013-05-04 03:53:00,54.3,46.6,30.15,North,0,0.0,0.0,75,0.00,OVC,,0.04,WeatherDisplay:10.37,2013-05-04 08:53:00,
2013-05-04 03:58:00,54.5,46.7,30.15,North,0,0.0,0.0,75,0.00,OVC,,0.04,WeatherDisplay:10.37,2013-05-04 08:58:00,
2013-05-04 04:03:00,54.5,46.4,30.15,North,0,0.0,0.0,74,0.00,-RA,OVC,0.04,WeatherDisplay:10.37,2013-05-04 09:03:00,
2013-05-04 04:08:00,54.5,46.4,30.15,North,0,0.0,0.0,74,0.00,-RA,OVC,0.04,WeatherDisplay:10.37,2013-05-04 09:08:00,
2013-05-04 04:13:00,54.5,46.4,30.15,North,0,0.0,0.0,74,0.00,-RA,OVC,0.04,WeatherDisplay:10.37,2013-05-04 09:13:00,
2013-05-04 04:18:00,54.5,46.4,30.15,North,0,0.0,0.0,74,0.04,-RA,OVC,0.08,WeatherDisplay:10.37,2013-05-04 09:18:00,
2013-05-04 04:23:00,54.5,46.4,30.15,North,0,0.0,0.0,74,0.04,-RA,OVC,0.08,WeatherDisplay:10.37,2013-05-04 09:23:00,
2013-05-04 04:28:00,54.5,46.4,30.15,North,0,0.0,0.0,74,0.04,-RA,OVC,0.08,WeatherDisplay:10.37,2013-05-04 09:28:00,
2013-05-04 04:33:00,54.7,46.6,30.15,North,0,0.0,0.0,74,0.04,-RA,OVC,0.08,WeatherDisplay:10.37,2013-05-04 09:33:00,
2013-05-04 04:38:00,54.7,46.6,30.15,North,0,0.0,0.0,74,0.04,-RA,OVC,0.08,WeatherDisplay:10.37,2013-05-04 09:38:00,
2013-05-04 04:43:00,54.7,46.6,30.15,North,0,0.0,0.0,74,0.04,-RA,OVC,0.08,WeatherDisplay:10.37,2013-05-04 09:43:00,
2013-05-04 04:48:00,54.9,46.7,30.15,North,0,0.0,0.0,74,0.04,-RA,OVC,0.08,WeatherDisplay:10.37,2013-05-04 09:48:00,
2013-05-04 04:53:00,55.0,47.3,30.15,North,0,0.0,0.0,75,0.04,-RA,OVC,0.08,WeatherDisplay:10.37,2013-05-04 09:53:00,
2013-05-04 04:58:00,55.0,47.3,30.15,North,0,0.0,0.0,75,0.04,-RA,OVC,0.08,WeatherDisplay:10.37,2013-05-04 09:58:00,
2013-05-04 05:03:00,55.2,47.1,30.12,North,0,0.0,0.0,74,0.04,-RA,OVC,0.08,WeatherDisplay:10.37,2013-05-04 10:03:00,
2013-05-04 05:08:00,55.2,47.1,30.12,North,0,0.0,0.0,74,0.04,-RA,OVC,0.08,WeatherDisplay:10.37,2013-05-04 10:08:00,
2013-05-04 05:13:00,55.2,47.1,30.12,North,0,0.0,0.0,74,0.04,-RA,OVC,0.08,WeatherDisplay:10.37,2013-05-04 10:13:00,
2013-05-04 05:18:00,55.2,47.1,30.15,North,0,0.0,0.0,74,0.00,-RA,OVC,0.08,WeatherDisplay:10.37,2013-05-04 10:18:00,
2013-05-04 05:23:00,55.4,47.2,30.15,North,0,0.0,0.0,74,0.00,-RA,OVC,0.08,WeatherDisplay:10.37,2013-05-04 10:23:00,
2013-05-04 05:28:00,55.4,47.2,30.15,North,0,0.0,0.0,74,0.00,-RA,OVC,0.08,WeatherDisplay:10.37,2013-05-04 10:28:00,
2013-05-04 05:33:00,55.4,47.2,30.15,North,0,0.0,0.0,74,0.00,-RA,OVC,0.08,WeatherDisplay:10.37,2013-05-04 10:33:00,
2013-05-04 05:38:00,55.4,47.2,30.15,North,0,0.0,0.0,74,0.00,-RA,OVC,0.08,WeatherDisplay:10.37,2013-05-04 10:38:00,
2013-05-04 05:43:00,55.6,47.4,30.15,North,0,0.0,0.0,74,0.00,-RA,OVC,0.08,WeatherDisplay:10.37,2013-05-04 10:43:00,
2013-05-04 05:48:00,55.6,47.4,30.15,North,0,0.0,0.0,74,0.00,-RA,OVC,0.08,WeatherDisplay:10.37,2013-05-04 10:48:00,
2013-05-04 05:53:00,55.6,47.4,30.15,North,0,0.0,0.0,74,0.00,-RA,OVC,0.08,WeatherDisplay:10.37,2013-05-04 10:53:00,
2013-05-04 05:58:00,55.6,47.4,30.15,North,0,0.0,0.0,74,0.00,-RA,OVC,0.08,WeatherDisplay:10.37,2013-05-04 10:58:00,
2013-05-04 06:03:00,55.4,47.2,30.15,North,0,0.0,0.0,74,0.00,BKN,OVC,0.08,WeatherDisplay:10.37,2013-05-04 11:03:00,
2013-05-04 06:08:00,55.4,47.2,30.15,North,0,0.0,0.0,74,0.00,BKN,OVC,0.08,WeatherDisplay:10.37,2013-05-04 11:08:00,
2013-05-04 06:13:00,55.2,47.1,30.15,North,0,0.0,0.0,74,0.00,BKN,OVC,0.08,WeatherDisplay:10.37,2013-05-04 11:13:00,
2013-05-04 06:18:00,55.2,47.1,30.15,North,0,0.0,0.0,74,0.00,BKN,OVC,0.08,WeatherDisplay:10.37,2013-05-04 11:18:00,
2013-05-04 06:23:00,55.0,46.9,30.15,North,0,0.0,0.0,74,0.00,BKN,OVC,0.08,WeatherDisplay:10.37,2013-05-04 11:23:00,
2013-05-04 06:28:00,55.0,46.9,30.15,North,0,0.0,0.0,74,0.00,BKN,OVC,0.08,WeatherDisplay:10.37,2013-05-04 11:28:00,
2013-05-04 06:33:00,54.9,46.7,30.15,North,0,0.0,0.0,74,0.00,BKN,OVC,0.08,WeatherDisplay:10.37,2013-05-04 11:33:00,
2013-05-04 06:38:00,54.9,46.7,30.15,North,0,0.0,0.0,74,0.00,BKN,OVC,0.08,WeatherDisplay:10.37,2013-05-04 11:38:00,
2013-05-04 06:43:00,54.9,46.7,30.15,North,0,0.0,0.0,74,0.00,BKN,OVC,0.08,WeatherDisplay:10.37,2013-05-04 11:43:00,
2013-05-04 06:48:00,54.7,46.6,30.15,North,0,0.0,0.0,74,0.00,BKN,OVC,0.08,WeatherDisplay:10.37,2013-05-04 11:48:00,
2013-05-04 06:53:00,54.7,46.6,30.15,North,0,0.0,0.0,74,0.00,BKN,OVC,0.08,WeatherDisplay:10.37,2013-05-04 11:53:00,
2013-05-04 06:58:00,54.5,46.4,30.15,North,0,0.0,0.0,74,0.00,BKN,OVC,0.08,WeatherDisplay:10.37,2013-05-04 11:58:00,
2013-05-04 07:03:00,54.5,46.4,30.18,North,0,0.0,0.0,74,0.00,BKN,OVC,0.08,WeatherDisplay:10.37,2013-05-04 12:03:00,
2013-05-04 07:08:00,54.5,46.4,30.18,North,0,0.0,0.0,74,0.00,BKN,OVC,0.08,WeatherDisplay:10.37,2013-05-04 12:08:00,
2013-05-04 07:13:00,54.5,46.4,30.18,North,0,0.0,0.0,74,0.00,BKN,OVC,0.08,WeatherDisplay:10.37,2013-05-04 12:13:00,
2013-05-04 07:18:00,54.5,46.4,30.18,North,0,0.0,0.0,74,0.00,SCT,OVC,0.08,WeatherDisplay:10.37,2013-05-04 12:18:00,
2013-05-04 07:23:00,54.5,46.4,30.18,North,0,0.0,0.0,74,0.00,SCT,OVC,0.08,WeatherDisplay:10.37,2013-05-04 12:23:00,
2013-05-04 07:28:00,54.5,46.4,30.18,North,0,0.0,0.0,74,0.00,SCT,OVC,0.08,WeatherDisplay:10.37,2013-05-04 12:28:00,
2013-05-04 07:34:00,54.5,46.4,30.18,North,0,0.0,0.0,74,0.00,SCT,OVC,0.08,WeatherDisplay:10.37,2013-05-04 12:34:00,
2013-05-04 07:39:00,54.5,46.4,30.18,North,0,0.0,0.0,74,0.00,SCT,OVC,0.08,WeatherDisplay:10.37,2013-05-04 12:39:00,
2013-05-04 07:44:00,54.7,46.6,30.18,North,0,0.0,0.0,74,0.00,SCT,OVC,0.08,WeatherDisplay:10.37,2013-05-04 12:44:00,
2013-05-04 07:49:00,54.7,46.6,30.18,North,0,0.0,0.0,74,0.00,SCT,OVC,0.08,WeatherDisplay:10.37,2013-05-04 12:49:00,
2013-05-04 07:54:00,54.7,46.6,30.18,North,0,0.0,0.0,74,0.00,SCT,OVC,0.08,WeatherDisplay:10.37,2013-05-04 12:54:00,
2013-05-04 07:59:00,54.9,46.7,30.18,North,0,0.0,0.0,74,0.00,SCT,OVC,0.08,WeatherDisplay:10.37,2013-05-04 12:59:00,
2013-05-04 08:03:00,55.0,47.3,30.18,North,0,0.0,0.0,75,0.00,FEW,OVC,0.08,WeatherDisplay:10.37,2013-05-04 13:03:00,
2013-05-04 08:08:00,55.0,47.3,30.18,North,0,0.0,0.0,75,0.00,FEW,OVC,0.08,WeatherDisplay:10.37,2013-05-04 13:08:00,
2013-05-04 08:13:00,55.2,47.4,30.18,North,0,0.0,0.0,75,0.00,FEW,OVC,0.08,WeatherDisplay:10.37,2013-05-04 13:13:00,
2013-05-04 08:18:00,55.4,47.2,30.18,North,0,0.0,0.0,74,0.00,FEW,OVC,0.08,WeatherDisplay:10.37,2013-05-04 13:18:00,
2013-05-04 08:23:00,55.4,47.2,30.18,North,0,0.0,0.0,74,0.00,FEW,OVC,0.08,WeatherDisplay:10.37,2013-05-04 13:23:00,
2013-05-04 08:28:00,55.6,47.4,30.21,North,0,0.0,0.0,74,0.00,FEW,OVC,0.08,WeatherDisplay:10.37,2013-05-04 13:28:00,
2013-05-04 08:33:00,55.8,47.6,30.21,North,0,0.0,0.0,74,0.00,FEW,OVC,0.08,WeatherDisplay:10.37,2013-05-04 13:33:00,
2013-05-04 08:38:00,55.8,47.6,30.21,North,0,0.0,0.0,74,0.00,FEW,OVC,0.08,WeatherDisplay:10.37,2013-05-04 13:38:00,
2013-05-04 08:44:00,55.9,47.8,30.21,North,0,0.0,0.0,74,0.00,FEW,OVC,0.08,WeatherDisplay:10.37,2013-05-04 13:44:00,
2013-05-04 08:49:00,56.1,48.3,30.21,North,0,0.0,0.0,75,0.00,FEW,OVC,0.08,WeatherDisplay:10.37,2013-05-04 13:49:00,
2013-05-04 08:54:00,56.3,48.5,30.21,North,0,0.0,0.0,75,0.00,FEW,OVC,0.08,WeatherDisplay:10.37,2013-05-04 13:54:00,
2013-05-04 08:59:00,56.5,48.6,30.21,North,0,0.0,0.0,75,0.00,FEW,OVC,0.08,WeatherDisplay:10.37,2013-05-04 13:59:00,
2013-05-04 09:04:00,56.7,48.8,30.21,North,0,0.0,0.0,75,0.00,FEW,OVC,0.08,WeatherDisplay:10.37,2013-05-04 14:04:00,
2013-05-04 09:09:00,56.8,49.0,30.21,North,0,0.0,0.0,75,0.00,FEW,OVC,0.08,WeatherDisplay:10.37,2013-05-04 14:09:00,
2013-05-04 09:14:00,57.0,49.2,30.21,North,0,0.0,0.0,75,0.00,FEW,OVC,0.08,WeatherDisplay:10.37,2013-05-04 14:14:00,
2013-05-04 09:19:00,57.2,49.3,30.21,North,0,0.0,0.0,75,0.00,FEW,OVC,0.08,WeatherDisplay:10.37,2013-05-04 14:19:00,
2013-05-04 09:24:00,57.4,49.5,30.21,North,0,0.0,0.0,75,0.00,FEW,OVC,0.08,WeatherDisplay:10.37,2013-05-04 14:24:00,
2013-05-04 09:29:00,57.6,49.7,30.21,North,0,0.0,0.0,75,0.00,FEW,OVC,0.08,WeatherDisplay:10.37,2013-05-04 14:29:00,
2013-05-04 09:34:00,57.9,50.0,30.21,North,0,0.0,0.0,75,0.00,FEW,OVC,0.08,WeatherDisplay:10.37,2013-05-04 14:34:00,
2013-05-04 09:39:00,58.1,50.2,30.21,North,0,0.0,0.0,75,0.00,FEW,OVC,0.08,WeatherDisplay:10.37,2013-05-04 14:39:00,
2013-05-04 09:44:00,58.3,50.4,30.21,North,0,0.0,0.0,75,0.00,FEW,OVC,0.08,WeatherDisplay:10.37,2013-05-04 14:44:00,
2013-05-04 09:49:00,58.5,50.6,30.21,North,0,0.0,0.0,75,0.00,FEW,OVC,0.08,WeatherDisplay:10.37,2013-05-04 14:49:00,
2013-05-04 09:54:00,58.6,50.7,30.21,North,0,0.0,0.0,75,0.00,FEW,OVC,0.08,WeatherDisplay:10.37,2013-05-04 14:54:00,
2013-05-04 09:59:00,58.8,50.9,30.21,North,0,0.0,0.0,75,0.00,FEW,OVC,0.08,WeatherDisplay:10.37,2013-05-04 14:59:00,
2013-05-04 10:04:00,59.2,50.9,30.21,North,0,0.0,0.0,74,0.00,FEW,OVC,0.08,WeatherDisplay:10.37,2013-05-04 15:04:00,
2013-05-04 10:09:00,59.5,51.6,30.21,North,0,0.0,0.0,75,0.00,FEW,OVC,0.08,WeatherDisplay:10.37,2013-05-04 15:09:00,
2013-05-04 10:14:00,59.9,52.0,30.21,North,0,0.0,0.0,75,0.00,FEW,OVC,0.08,WeatherDisplay:10.37,2013-05-04 15:14:00,
2013-05-04 10:19:00,60.4,52.5,30.21,North,0,0.0,0.0,75,0.00,OVC,,0.08,WeatherDisplay:10.37,2013-05-04 15:19:00,
2013-05-04 10:24:00,61.0,53.0,30.21,North,0,0.0,0.0,75,0.00,OVC,,0.08,WeatherDisplay:10.37,2013-05-04 15:24:00,
2013-05-04 10:29:00,61.3,53.3,30.21,North,0,0.0,0.0,75,0.00,OVC,,0.08,WeatherDisplay:10.37,2013-05-04 15:29:00,
2013-05-04 10:34:00,61.7,53.7,30.21,North,0,0.0,0.0,75,0.00,OVC,,0.08,WeatherDisplay:10.37,2013-05-04 15:34:00,
2013-05-04 10:39:00,62.1,53.7,30.21,North,0,0.0,0.0,74,0.00,OVC,,0.08,WeatherDisplay:10.37,2013-05-04 15:39:00,
2013-05-04 10:44:00,62.2,53.8,30.21,North,0,0.0,0.0,74,0.00,OVC,,0.08,WeatherDisplay:10.37,2013-05-04 15:44:00,
2013-05-04 10:49:00,63.0,54.2,30.21,North,0,0.0,0.0,73,0.00,OVC,,0.08,WeatherDisplay:10.37,2013-05-04 15:49:00,
2013-05-04 10:54:00,63.5,54.7,30.21,North,0,0.0,0.0,73,0.00,OVC,,0.08,WeatherDisplay:10.37,2013-05-04 15:54:00,
2013-05-04 10:59:00,63.9,54.7,30.21,North,0,0.0,0.0,72,0.00,OVC,,0.08,WeatherDisplay:10.37,2013-05-04 15:59:00,
2013-05-04 11:04:00,64.0,54.1,30.21,North,0,0.0,0.0,70,0.00,OVC,,0.08,WeatherDisplay:10.37,2013-05-04 16:04:00,
2013-05-04 11:09:00,64.4,53.6,30.21,North,0,0.0,0.0,68,0.00,OVC,,0.08,WeatherDisplay:10.37,2013-05-04 16:09:00,
2013-05-04 11:14:00,64.8,53.1,30.24,North,0,0.0,0.0,66,0.00,OVC,,0.08,WeatherDisplay:10.37,2013-05-04 16:14:00,
2013-05-04 11:19:00,65.3,52.8,30.24,North,0,0.0,0.0,64,0.00,BKN,OVC,0.08,WeatherDisplay:10.37,2013-05-04 16:19:00,
2013-05-04 11:24:00,65.7,51.4,30.24,North,0,0.0,0.0,60,0.00,BKN,OVC,0.08,WeatherDisplay:10.37,2013-05-04 16:24:00,
2013-05-04 11:29:00,65.8,48.2,30.21,North,0,0.0,0.0,53,0.00,BKN,OVC,0.08,WeatherDisplay:10.37,2013-05-04 16:29:00,
2013-05-04 11:34:00,65.7,46.0,30.21,North,0,0.0,0.0,49,0.00,BKN,OVC,0.08,WeatherDisplay:10.37,2013-05-04 16:34:00,
2013-05-04 11:39:00,65.5,44.1,30.21,North,0,0.0,0.0,46,0.00,BKN,OVC,0.08,WeatherDisplay:10.37,2013-05-04 16:39:00,
2013-05-04 11:44:00,65.5,43.0,30.24,North,0,0.0,0.0,44,0.00,BKN,OVC,0.08,WeatherDisplay:10.37,2013-05-04 16:44:00,
2013-05-04 11:49:00,65.5,39.9,30.24,North,0,0.0,0.0,39,0.00,BKN,OVC,0.08,WeatherDisplay:10.37,2013-05-04 16:49:00,
2013-05-04 11:54:00,65.7,38.0,30.24,North,0,0.0,0.0,36,0.00,BKN,OVC,0.08,WeatherDisplay:10.37,2013-05-04 16:54:00,
2013-05-04 11:59:00,65.8,35.9,30.24,North,0,0.0,0.0,33,0.00,BKN,OVC,0.08,WeatherDisplay:10.37,2013-05-04 16:59:00,
2013-05-04 12:04:00,65.7,33.4,30.24,North,0,0.0,0.0,30,0.00,BKN,OVC,0.08,WeatherDisplay:10.37,2013-05-04 17:04:00,
2013-05-04 12:09:00,65.5,30.6,30.24,North,0,0.0,0.0,27,0.00,BKN,OVC,0.08,WeatherDisplay:10.37,2013-05-04 17:09:00,
2013-05-04 12:14:00,65.8,30.9,30.24,North,0,0.0,0.0,27,0.00,BKN,OVC,0.08,WeatherDisplay:10.37,2013-05-04 17:14:00,
2013-05-04 12:19:00,66.0,29.2,30.24,North,0,0.0,0.0,25,0.00,BKN,OVC,0.08,WeatherDisplay:10.37,2013-05-04 17:19:00,
2013-05-04 12:24:00,66.4,28.5,30.24,North,0,0.0,0.0,24,0.00,BKN,OVC,0.08,WeatherDisplay:10.37,2013-05-04 17:24:00,
2013-05-04 12:29:00,66.7,28.8,30.24,North,0,0.0,0.0,24,0.00,BKN,OVC,0.08,WeatherDisplay:10.37,2013-05-04 17:29:00,
2013-05-04 12:34:00,67.1,28.0,30.24,North,0,0.0,0.0,23,0.00,BKN,OVC,0.08,WeatherDisplay:10.37,2013-05-04 17:34:00,
2013-05-04 12:39:00,67.5,28.3,30.24,North,0,0.0,0.0,23,0.00,BKN,OVC,0.08,WeatherDisplay:10.37,2013-05-04 17:39:00,
2013-05-04 12:44:00,67.6,28.5,30.21,North,0,0.0,0.0,23,0.00,BKN,OVC,0.08,WeatherDisplay:10.37,2013-05-04 17:44:00,
2013-05-04 12:49:00,67.5,27.2,30.21,North,0,0.0,0.0,22,0.00,BKN,OVC,0.08,WeatherDisplay:10.37,2013-05-04 17:49:00,
2013-05-04 12:54:00,67.3,24.8,30.21,North,0,0.0,0.0,20,0.00,BKN,OVC,0.08,WeatherDisplay:10.37,2013-05-04 17:54:00,
2013-05-04 12:59:00,67.1,24.6,30.21,North,0,0.0,0.0,20,0.00,BKN,OVC,0.08,WeatherDisplay:10.37,2013-05-04 17:59:00,
2013-05-04 13:04:00,67.5,21.1,30.21,North,0,0.0,0.0,17,0.00,BKN,OVC,0.08,WeatherDisplay:10.37,2013-05-04 18:04:00,
2013-05-04 13:09:00,67.8,21.4,30.21,North,0,0.0,0.0,17,0.00,BKN,OVC,0.08,WeatherDisplay:10.37,2013-05-04 18:09:00,
2013-05-04 13:14:00,68.0,21.5,30.21,North,0,0.0,0.0,17,0.00,BKN,OVC,0.08,WeatherDisplay:10.37,2013-05-04 18:14:00,
2013-05-04 13:19:00,68.4,21.8,30.21,North,0,0.0,0.0,17,0.00,OVC,,0.08,WeatherDisplay:10.37,2013-05-04 18:19:00,
2013-05-04 13:24:00,68.9,19.3,30.21,North,0,0.0,0.0,15,0.00,OVC,,0.08,WeatherDisplay:10.37,2013-05-04 18:24:00,
2013-05-04 13:29:00,69.3,14.4,30.21,North,0,0.0,0.0,12,0.00,OVC,,0.08,WeatherDisplay:10.37,2013-05-04 18:29:00,
2013-05-04 13:34:00,69.4,14.6,30.21,North,0,0.0,0.0,12,0.00,OVC,,0.08,WeatherDisplay:10.37,2013-05-04 18:34:00,
2013-05-04 13:39:00,69.6,14.7,30.21,North,0,0.0,0.0,12,0.00,OVC,,0.08,WeatherDisplay:10.37,2013-05-04 18:39:00,
2013-05-04 13:44:00,69.6,14.7,30.21,North,0,0.0,0.0,12,0.00,OVC,,0.08,WeatherDisplay:10.37,2013-05-04 18:44:00,
2013-05-04 13:49:00,69.4,14.6,30.21,North,0,0.0,0.0,12,0.00,OVC,,0.08,WeatherDisplay:10.37,2013-05-04 18:49:00,
2013-05-04 13:54:00,69.3,10.3,30.21,North,0,0.0,0.0,10,0.00,OVC,,0.08,WeatherDisplay:10.37,2013-05-04 18:54:00,
2013-05-04 13:59:00,70.0,15.0,30.21,North,0,0.0,0.0,12,0.00,OVC,,0.08,WeatherDisplay:10.37,2013-05-04 18:59:00,
2013-05-04 14:04:00,70.5,15.4,30.21,North,0,0.0,0.0,12,0.00,OVC,,0.08,WeatherDisplay:10.37,2013-05-04 19:04:00,
2013-05-04 14:09:00,70.5,8.9,30.21,North,0,0.0,0.0,9,0.00,OVC,,0.08,WeatherDisplay:10.37,2013-05-04 19:09:00,
2013-05-04 14:14:00,70.3,8.8,30.21,North,0,0.0,0.0,9,0.00,OVC,,0.08,WeatherDisplay:10.37,2013-05-04 19:14:00,
2013-05-04 14:19:00,70.3,15.3,30.21,North,0,0.0,0.0,12,0.00,BKN,OVC,0.08,WeatherDisplay:10.37,2013-05-04 19:19:00,
2013-05-04 14:24:00,70.3,8.8,30.21,North,0,0.0,0.0,9,0.00,BKN,OVC,0.08,WeatherDisplay:10.37,2013-05-04 19:24:00,
2013-05-04 14:29:00,70.3,8.8,30.21,North,0,0.0,0.0,9,0.00,BKN,OVC,0.08,WeatherDisplay:10.37,2013-05-04 19:29:00,
2013-05-04 14:34:00,70.2,8.6,30.21,North,0,0.0,0.0,9,0.00,BKN,OVC,0.08,WeatherDisplay:10.37,2013-05-04 19:34:00,
2013-05-04 14:39:00,69.8,8.3,30.21,North,0,0.0,0.0,9,0.00,BKN,OVC,0.08,WeatherDisplay:10.37,2013-05-04 19:39:00,
2013-05-04 14:44:00,69.3,10.3,30.21,North,0,0.0,0.0,10,0.00,BKN,OVC,0.08,WeatherDisplay:10.37,2013-05-04 19:44:00,
2013-05-04 14:49:00,68.7,9.9,30.21,North,0,0.0,0.0,10,0.00,BKN,OVC,0.08,WeatherDisplay:10.37,2013-05-04 19:49:00,
2013-05-04 14:54:00,68.5,13.9,30.21,North,0,0.0,0.0,12,0.00,BKN,OVC,0.08,WeatherDisplay:10.37,2013-05-04 19:54:00,
2013-05-04 14:59:00,68.2,13.6,30.21,North,0,0.0,0.0,12,0.00,BKN,OVC,0.08,WeatherDisplay:10.37,2013-05-04 19:59:00,
2013-05-04 15:04:00,67.8,13.3,30.21,North,0,0.0,0.0,12,0.00,BKN,OVC,0.08,WeatherDisplay:10.37,2013-05-04 20:04:00,
2013-05-04 15:09:00,67.6,13.1,30.21,North,0,0.0,0.0,12,0.00,BKN,OVC,0.08,WeatherDisplay:10.37,2013-05-04 20:09:00,
2013-05-04 15:14:00,67.6,13.1,30.21,North,0,0.0,0.0,12,0.00,BKN,OVC,0.08,WeatherDisplay:10.37,2013-05-04 20:14:00,
2013-05-04 15:19:00,67.6,13.1,30.21,North,0,0.0,0.0,12,0.00,OVC,,0.08,WeatherDisplay:10.37,2013-05-04 20:19:00,
2013-05-04 15:24:00,67.6,13.1,30.21,North,0,0.0,0.0,12,0.00,OVC,,0.08,WeatherDisplay:10.37,2013-05-04 20:24:00,
2013-05-04 15:29:00,67.5,13.0,30.21,North,0,0.0,0.0,12,0.00,OVC,,0.08,WeatherDisplay:10.37,2013-05-04 20:29:00,
2013-05-04 15:34:00,67.3,12.9,30.21,North,0,0.0,0.0,12,0.00,OVC,,0.08,WeatherDisplay:10.37,2013-05-04 20:34:00,
2013-05-04 15:39:00,66.9,17.7,30.21,North,0,0.0,0.0,15,0.00,OVC,,0.08,WeatherDisplay:10.37,2013-05-04 20:39:00,
2013-05-04 15:44:00,66.2,20.0,30.21,North,0,0.0,0.0,17,0.00,OVC,,0.08,WeatherDisplay:10.37,2013-05-04 20:44:00,
2013-05-04 15:49:00,65.8,21.1,30.21,North,0,0.0,0.0,18,0.00,OVC,,0.08,WeatherDisplay:10.37,2013-05-04 20:49:00,
2013-05-04 15:54:00,65.7,26.8,30.21,North,0,0.0,0.0,23,0.00,OVC,,0.08,WeatherDisplay:10.37,2013-05-04 20:54:00,
2013-05-04 15:59:00,65.7,26.8,30.21,North,0,0.0,0.0,23,0.00,OVC,,0.08,WeatherDisplay:10.37,2013-05-04 20:59:00,
2013-05-04 16:04:00,66.0,29.2,30.21,North,0,0.0,0.0,25,0.00,OVC,,0.08,WeatherDisplay:10.37,2013-05-04 21:04:00,
2013-05-04 16:09:00,66.4,30.4,30.21,North,0,0.0,0.0,26,0.00,OVC,,0.08,WeatherDisplay:10.37,2013-05-04 21:09:00,
2013-05-04 16:14:00,66.4,29.5,30.21,North,0,0.0,0.0,25,0.00,OVC,,0.08,WeatherDisplay:10.37,2013-05-04 21:14:00,
2013-05-04 16:19:00,66.0,30.1,30.21,North,0,0.0,0.0,26,0.00,OVC,,0.08,WeatherDisplay:10.37,2013-05-04 21:19:00,
2013-05-04 16:24:00,65.7,29.8,30.21,North,0,0.0,0.0,26,0.00,OVC,,0.08,WeatherDisplay:10.37,2013-05-04 21:24:00,
2013-05-04 16:29:00,65.1,30.3,30.24,North,0,0.0,0.0,27,0.00,OVC,,0.08,WeatherDisplay:10.37,2013-05-04 21:29:00,
2013-05-04 16:34:00,64.9,30.1,30.24,North,0,0.0,0.0,27,0.00,OVC,,0.08,WeatherDisplay:10.37,2013-05-04 21:34:00,
2013-05-04 16:39:00,64.8,30.9,30.24,North,0,0.0,0.0,28,0.00,OVC,,0.08,WeatherDisplay:10.37,2013-05-04 21:39:00,
2013-05-04 16:44:00,64.4,31.4,30.24,North,0,0.0,0.0,29,0.00,OVC,,0.08,WeatherDisplay:10.37,2013-05-04 21:44:00,
2013-05-04 16:49:00,64.2,32.1,30.24,North,0,0.0,0.0,30,0.00,OVC,,0.08,WeatherDisplay:10.37,2013-05-04 21:49:00,
2013-05-04 16:54:00,63.5,32.3,30.24,North,0,0.0,0.0,31,0.00,OVC,,0.08,WeatherDisplay:10.37,2013-05-04 21:54:00,
2013-05-04 16:59:00,63.1,33.5,30.24,North,0,0.0,0.0,33,0.00,OVC,,0.08,WeatherDisplay:10.37,2013-05-04 21:59:00,
2013-05-04 17:04:00,63.0,33.4,30.24,North,0,0.0,0.0,33,0.00, +RA,OVC,0.08,WeatherDisplay:10.37,2013-05-04 22:04:00,
2013-05-04 17:09:00,62.6,33.8,30.24,North,0,0.0,0.0,34,0.00, +RA,OVC,0.08,WeatherDisplay:10.37,2013-05-04 22:09:00,
2013-05-04 17:14:00,62.4,33.7,30.24,North,0,0.0,0.0,34,0.00, +RA,OVC,0.08,WeatherDisplay:10.37,2013-05-04 22:14:00,
2013-05-04 17:19:00,62.2,34.2,30.24,North,0,0.0,0.0,35,0.00, +RA,OVC,0.08,WeatherDisplay:10.37,2013-05-04 22:19:00,
2013-05-04 17:24:00,62.1,34.1,30.24,North,0,0.0,0.0,35,0.00, +RA,OVC,0.08,WeatherDisplay:10.37,2013-05-04 22:24:00,
2013-05-04 17:29:00,61.9,34.6,30.24,North,0,0.0,0.0,36,0.00, +RA,OVC,0.08,WeatherDisplay:10.37,2013-05-04 22:29:00,
2013-05-04 17:34:00,61.9,34.6,30.24,North,0,0.0,0.0,36,0.00, +RA,OVC,0.08,WeatherDisplay:10.37,2013-05-04 22:34:00,
2013-05-04 17:39:00,61.7,35.1,30.24,North,0,0.0,0.0,37,0.00, +RA,OVC,0.08,WeatherDisplay:10.37,2013-05-04 22:39:00,
2013-05-04 17:44:00,61.5,35.0,30.24,North,0,0.0,0.0,37,0.00, +RA,OVC,0.08,WeatherDisplay:10.37,2013-05-04 22:44:00,
2013-05-04 17:49:00,61.3,34.8,30.24,North,0,0.0,0.0,37,0.00,-RA,OVC,0.08,WeatherDisplay:10.37,2013-05-04 22:49:00,
2013-05-04 17:54:00,61.2,34.7,30.24,North,0,0.0,0.0,37,0.00,-RA,OVC,0.08,WeatherDisplay:10.37,2013-05-04 22:54:00,
2013-05-04 17:59:00,61.0,35.2,30.24,North,0,0.0,0.0,38,0.00,-RA,OVC,0.08,WeatherDisplay:10.37,2013-05-04 22:59:00,
2013-05-04 18:04:00,60.8,35.0,30.24,North,0,0.0,0.0,38,0.00, +RA,OVC,0.08,WeatherDisplay:10.37,2013-05-04 23:04:00,
2013-05-04 18:09:00,60.8,35.0,30.24,North,0,0.0,0.0,38,0.00, +RA,OVC,0.08,WeatherDisplay:10.37,2013-05-04 23:09:00,
2013-05-04 18:14:00,60.6,35.5,30.26,North,0,0.0,0.0,39,0.00, +RA,OVC,0.08,WeatherDisplay:10.37,2013-05-04 23:14:00,
2013-05-04 18:19:00,60.6,35.5,30.26,North,0,0.0,0.0,39,0.00,-RA,OVC,0.08,WeatherDisplay:10.37,2013-05-04 23:19:00,
2013-05-04 18:24:00,60.6,35.5,30.26,North,0,0.0,0.0,39,0.00,-RA,OVC,0.08,WeatherDisplay:10.37,2013-05-04 23:24:00,
2013-05-04 18:29:00,60.6,35.5,30.26,North,0,0.0,0.0,39,0.00,-RA,OVC,0.08,WeatherDisplay:10.37,2013-05-04 23:29:00,
2013-05-04 18:34:00,60.6,35.5,30.26,North,0,0.0,0.0,39,0.00,-RA,OVC,0.08,WeatherDisplay:10.37,2013-05-04 23:34:00,
2013-05-04 18:39:00,60.4,36.0,30.26,North,0,0.0,0.0,40,0.00,-RA,OVC,0.08,WeatherDisplay:10.37,2013-05-04 23:39:00,
2013-05-04 18:44:00,60.4,36.0,30.26,North,0,0.0,0.0,40,0.00,-RA,OVC,0.08,WeatherDisplay:10.37,2013-05-04 23:44:00,
2013-05-04 18:49:00,60.4,36.0,30.26,North,0,0.0,0.0,40,0.00,-RA,OVC,0.08,WeatherDisplay:10.37,2013-05-04 23:49:00,
2013-05-04 18:54:00,60.3,35.8,30.26,North,0,0.0,0.0,40,0.00,-RA,OVC,0.08,WeatherDisplay:10.37,2013-05-04 23:54:00,
2013-05-04 18:59:00,60.3,35.8,30.26,North,0,0.0,0.0,40,0.00,-RA,OVC,0.08,WeatherDisplay:10.37,2013-05-04 23:59:00,
2013-05-04 19:04:00,60.3,36.4,30.26,North,0,0.0,0.0,41,0.00,OVC,,0.08,WeatherDisplay:10.37,2013-05-05 00:04:00,
2013-05-04 19:09:00,60.3,36.4,30.26,North,0,0.0,0.0,41,0.00,OVC,,0.08,WeatherDisplay:10.37,2013-05-05 00:09:00,
2013-05-04 19:14:00,60.1,36.3,30.26,North,0,0.0,0.0,41,0.00,OVC,,0.08,WeatherDisplay:10.37,2013-05-05 00:14:00,
2013-05-04 19:19:00,59.9,36.1,30.26,North,0,0.0,0.0,41,0.00,OVC,,0.08,WeatherDisplay:10.37,2013-05-05 00:19:00,
2013-05-04 19:24:00,59.7,36.0,30.26,North,0,0.0,0.0,41,0.00,OVC,,0.08,WeatherDisplay:10.37,2013-05-05 00:24:00,
2013-05-04 19:29:00,59.5,35.8,30.26,North,0,0.0,0.0,41,0.00,OVC,,0.08,WeatherDisplay:10.37,2013-05-05 00:29:00,
2013-05-04 19:34:00,59.4,35.0,30.26,North,0,0.0,0.0,40,0.00,OVC,,0.08,WeatherDisplay:10.37,2013-05-05 00:34:00,
2013-05-04 19:39:00,59.4,35.0,30.26,North,0,0.0,0.0,40,0.00,OVC,,0.08,WeatherDisplay:10.37,2013-05-05 00:39:00,
2013-05-04 19:44:00,59.2,34.9,30.30,North,0,0.0,0.0,40,0.00,OVC,,0.08,WeatherDisplay:10.37,2013-05-05 00:44:00,
2013-05-04 19:49:00,59.0,34.7,30.30,North,0,0.0,0.0,40,0.00,OVC,,0.08,WeatherDisplay:10.37,2013-05-05 00:49:00,
2013-05-04 19:54:00,59.0,34.7,30.30,North,0,0.0,0.0,40,0.00,OVC,,0.08,WeatherDisplay:10.37,2013-05-05 00:54:00,
2013-05-04 19:59:00,58.8,34.5,30.26,North,0,0.0,0.0,40,0.00,OVC,,0.08,WeatherDisplay:10.37,2013-05-05 00:59:00,
2013-05-04 20:04:00,58.8,34.5,30.26,North,0,0.0,0.0,40,0.00,OVC,,0.08,WeatherDisplay:10.37,2013-05-05 01:04:00,
2013-05-04 20:09:00,58.8,34.5,30.26,North,0,0.0,0.0,40,0.00,OVC,,0.08,WeatherDisplay:10.37,2013-05-05 01:09:00,
2013-05-04 20:14:00,58.6,34.4,30.30,North,0,0.0,0.0,40,0.00,OVC,,0.08,WeatherDisplay:10.37,2013-05-05 01:14:00,
2013-05-04 20:19:00,58.6,34.4,30.30,North,0,0.0,0.0,40,0.00,OVC,,0.08,WeatherDisplay:10.37,2013-05-05 01:19:00,
2013-05-04 20:24:00,58.5,34.2,30.30,North,0,0.0,0.0,40,0.00,OVC,,0.08,WeatherDisplay:10.37,2013-05-05 01:24:00,
2013-05-04 20:29:00,58.5,34.2,30.30,North,0,0.0,0.0,40,0.00,OVC,,0.08,WeatherDisplay:10.37,2013-05-05 01:29:00,
2013-05-04 20:34:00,58.3,34.0,30.30,North,0,0.0,0.0,40,0.00,OVC,,0.08,WeatherDisplay:10.37,2013-05-05 01:34:00,
2013-05-04 20:39:00,58.3,34.7,30.30,North,0,0.0,0.0,41,0.00,OVC,,0.08,WeatherDisplay:10.37,2013-05-05 01:39:00,
2013-05-04 20:44:00,58.1,34.5,30.30,North,0,0.0,0.0,41,0.00,OVC,,0.08,WeatherDisplay:10.37,2013-05-05 01:44:00,
2013-05-04 20:49:00,58.1,34.5,30.30,North,0,0.0,0.0,41,0.00,OVC,,0.08,WeatherDisplay:10.37,2013-05-05 01:49:00,
2013-05-04 20:54:00,57.9,34.9,30.30,North,0,0.0,0.0,42,0.00,OVC,,0.08,WeatherDisplay:10.37,2013-05-05 01:54:00,
2013-05-04 20:59:00,57.9,34.9,30.30,North,0,0.0,0.0,42,0.00,OVC,,0.08,WeatherDisplay:10.37,2013-05-05 01:59:00,
2013-05-04 21:04:00,57.7,34.8,30.30,North,0,0.0,0.0,42,0.00,OVC,,0.08,WeatherDisplay:10.37,2013-05-05 02:04:00,
2013-05-04 21:09:00,57.7,34.8,30.30,North,0,0.0,0.0,42,0.00,OVC,,0.08,WeatherDisplay:10.37,2013-05-05 02:09:00,
2013-05-04 21:14:00,57.6,35.2,30.32,North,0,0.0,0.0,43,0.00,OVC,,0.08,WeatherDisplay:10.37,2013-05-05 02:14:00,
2013-05-04 21:19:00,57.6,35.2,30.32,North,0,0.0,0.0,43,0.00,OVC,,0.08,WeatherDisplay:10.37,2013-05-05 02:19:00,
2013-05-04 21:24:00,57.6,35.8,30.32,North,0,0.0,0.0,44,0.00,OVC,,0.08,WeatherDisplay:10.37,2013-05-05 02:24:00,
2013-05-04 21:29:00,57.6,35.8,30.32,North,0,0.0,0.0,44,0.00,OVC,,0.08,WeatherDisplay:10.37,2013-05-05 02:29:00,
2013-05-04 21:34:00,57.6,35.8,30.32,North,0,0.0,0.0,44,0.00,OVC,,0.08,WeatherDisplay:10.37,2013-05-05 02:34:00,
2013-05-04 21:39:00,57.6,35.8,30.32,North,0,0.0,0.0,44,0.00,OVC,,0.08,WeatherDisplay:10.37,2013-05-05 02:39:00,
2013-05-04 21:44:00,57.6,36.4,30.32,North,0,0.0,0.0,45,0.00,OVC,,0.08,WeatherDisplay:10.37,2013-05-05 02:44:00,
2013-05-04 21:49:00,57.6,36.4,30.32,North,0,0.0,0.0,45,0.00,OVC,,0.08,WeatherDisplay:10.37,2013-05-05 02:49:00,
2013-05-04 21:54:00,57.7,36.5,30.32,North,0,0.0,0.0,45,0.00,OVC,,0.08,WeatherDisplay:10.37,2013-05-05 02:54:00,
2013-05-04 21:59:00,57.7,36.5,30.32,North,0,0.0,0.0,45,0.00,OVC,,0.08,WeatherDisplay:10.37,2013-05-05 02:59:00,
2013-05-04 22:04:00,57.7,36.5,30.32,North,0,0.0,0.0,45,0.00,OVC,,0.08,WeatherDisplay:10.37,2013-05-05 03:04:00,
2013-05-04 22:09:00,57.7,36.5,30.32,North,0,0.0,0.0,45,0.00,OVC,,0.08,WeatherDisplay:10.37,2013-05-05 03:09:00,
2013-05-04 22:14:00,57.7,36.5,30.32,North,0,0.0,0.0,45,0.00,OVC,,0.08,WeatherDisplay:10.37,2013-05-05 03:14:00,
2013-05-04 22:19:00,57.7,36.5,30.32,North,0,0.0,0.0,45,0.00,OVC,,0.08,WeatherDisplay:10.37,2013-05-05 03:19:00,
2013-05-04 22:24:00,57.7,36.5,30.32,North,0,0.0,0.0,45,0.00,OVC,,0.08,WeatherDisplay:10.37,2013-05-05 03:24:00,
2013-05-04 22:29:00,57.7,36.5,30.32,North,0,0.0,0.0,45,0.00,OVC,,0.08,WeatherDisplay:10.37,2013-05-05 03:29:00,
2013-05-04 22:34:00,57.7,36.5,30.32,North,0,0.0,0.0,45,0.00,OVC,,0.08,WeatherDisplay:10.37,2013-05-05 03:34:00,
2013-05-04 22:39:00,57.6,36.4,30.32,North,0,0.0,0.0,45,0.00,OVC,,0.08,WeatherDisplay:10.37,2013-05-05 03:39:00,
2013-05-04 22:44:00,57.6,36.4,30.32,North,0,0.0,0.0,45,0.00,OVC,,0.08,WeatherDisplay:10.37,2013-05-05 03:44:00,
2013-05-04 22:49:00,57.6,36.4,30.32,North,0,0.0,0.0,45,0.00,OVC,,0.08,WeatherDisplay:10.37,2013-05-05 03:49:00,
2013-05-04 22:54:00,57.6,36.4,30.32,North,0,0.0,0.0,45,0.00,OVC,,0.08,WeatherDisplay:10.37,2013-05-05 03:54:00,
2013-05-04 22:59:00,57.6,36.4,30.32,North,0,0.0,0.0,45,0.00,OVC,,0.08,WeatherDisplay:10.37,2013-05-05 03:59:00,
2013-05-04 23:01:00,57.6,36.4,30.32,North,0,0.0,0.0,45,0.00,OVC,,0.08,WeatherDisplay:10.37,2013-05-05 04:01:00,
2013-05-04 23:02:00,57.6,36.4,30.32,North,0,0.0,0.0,45,0.00,OVC,,0.08,WeatherDisplay:10.37,2013-05-05 04:02:00,
2013-05-04 23:03:00,57.6,36.4,30.32,North,0,0.0,0.0,45,0.00,OVC,,0.08,WeatherDisplay:10.37,2013-05-05 04:03:00,
2013-05-04 23:08:00,57.4,36.2,30.32,North,0,0.0,0.0,45,0.00,OVC,,0.08,WeatherDisplay:10.37,2013-05-05 04:08:00,
2013-05-04 23:13:00,57.4,36.2,30.32,North,0,0.0,0.0,45,0.00,OVC,,0.08,WeatherDisplay:10.37,2013-05-05 04:13:00,
2013-05-04 23:18:00,57.2,36.0,30.32,North,0,0.0,0.0,45,0.00,OVC,,0.08,WeatherDisplay:10.37,2013-05-05 04:18:00,
2013-05-04 23:23:00,57.2,36.0,30.32,North,0,0.0,0.0,45,0.00,OVC,,0.08,WeatherDisplay:10.37,2013-05-05 04:23:00,
2013-05-04 23:28:00,57.2,36.0,30.32,North,0,0.0,0.0,45,0.00,OVC,,0.08,WeatherDisplay:10.37,2013-05-05 04:28:00,
2013-05-04 23:33:00,57.2,36.0,30.32,North,0,0.0,0.0,45,0.00,OVC,,0.08,WeatherDisplay:10.37,2013-05-05 04:33:00,
2013-05-04 23:38:00,57.0,36.4,30.32,North,0,0.0,0.0,46,0.00,OVC,,0.08,WeatherDisplay:10.37,2013-05-05 04:38:00,
2013-05-04 23:43:00,57.0,36.4,30.32,North,0,0.0,0.0,46,0.00,OVC,,0.08,WeatherDisplay:10.37,2013-05-05 04:43:00,
2013-05-04 23:48:00,57.0,36.4,30.32,North,0,0.0,0.0,46,0.00,OVC,,0.08,WeatherDisplay:10.37,2013-05-05 04:48:00,
2013-05-04 23:53:00,56.8,36.3,30.32,North,0,0.0,0.0,46,0.00,OVC,,0.08,WeatherDisplay:10.37,2013-05-05 04:53:00,
2013-05-04 23:58:00,56.8,36.3,30.32,North,0,0.0,0.0,46,0.00,OVC,,0.08,WeatherDisplay:10.37,2013-05-05 04:58:00,